This is the latest recevied weather packets stored in our database for station/object WD7CGF. If no packets are shown the sender has not sent any weather packets the latest 10 day(s).
| Time | Temp. | Humidity | Pressure | Rain* | Wind** | Luminosity | Snow |
|---|---|---|---|---|---|---|---|
| 1788055130 | 15.56° C | 59% | 1014.7 hPa | 0 mm | - | - | - |
| 1788054523 | 15.56° C | 60% | 1014.7 hPa | 0 mm | - | - | - |
| 1788053919 | 16.11° C | 60% | 1014.7 hPa | 0 mm | - | - | - |
| 1788053314 | 16.11° C | 60% | 1014.7 hPa | 0 mm | - | - | - |
| 1788052727 | 16.11° C | 60% | 1014.7 hPa | 0 mm | - | - | - |
| 1788052119 | 16.11° C | 58% | 1015.5 hPa | 0 mm | - | - | - |
| 1788051515 | 16.67° C | 59% | 1015.5 hPa | 0 mm | - | - | - |
| 1788050928 | 16.11° C | 60% | 1015.5 hPa | 0 mm | - | - | - |
| 1788050322 | 15.56° C | 61% | 1015.9 hPa | 0 mm | - | - | - |
| 1788049719 | 15.56° C | 60% | 1015.9 hPa | 0 mm | - | - | - |
| 1788049114 | 16.11° C | 60% | 1015.9 hPa | 0 mm | - | - | - |
| 1788048528 | 16.11° C | 59% | 1015.6 hPa | 0 mm | - | - | - |
| 1788047920 | 16.67° C | 56% | 1015 hPa | 0 mm | - | - | - |
| 1788047315 | 17.78° C | 55% | 1015 hPa | 0 mm | - | - | - |
| 1788046727 | 17.78° C | 54% | 1014.9 hPa | 0 mm | - | - | - |
| 1788046123 | 17.78° C | 53% | 1014.7 hPa | 0 mm | - | - | - |
| 1788045516 | 17.78° C | 53% | 1014.7 hPa | 0 mm | - | - | - |
| 1788044917 | 17.78° C | 55% | 1014.7 hPa | 0 mm | - | - | - |
| 1788044331 | 17.22° C | 56% | 1014.7 hPa | 0 mm | - | - | - |
| 1788043723 | 17.78° C | 53% | 1014.7 hPa | 0 mm | - | - | - |
| 1788043116 | 18.89° C | 53% | 1014.4 hPa | 0 mm | - | - | - |
| 1788042529 | 18.89° C | 52% | 1014.4 hPa | 0 mm | - | - | - |
| 1788041923 | 18.89° C | 52% | 1014.4 hPa | 0 mm | - | - | - |
| 1788041315 | 19.44° C | 51% | 1013.9 hPa | 0 mm | - | - | - |
| 1788040728 | 19.44° C | 53% | 1013.8 hPa | 0 mm | - | - | - |
* Rain latest hour (hover to see other rain measurements)
** Current wind speed in m/s (hover to see current wind gust speed)